Location: La Vergne
(36.0160°N, 86.5820°W)
Time: 23:05:55
(UTC-06:00)

Daily predictions for brighter satellites

Satellite Brightness Start Highest point End
(mag) Time Altitude Azimuth Time Altitude Azimuth Time Altitude Azimuth
Cosmos 2360 Rocket 3.5 17:55:14 10° NNE 17:59:10 19° NE 18:03:06 10° E
Cosmos 1980 Rocket 3.1 17:54:43 10° NNW 18:00:17 57° WSW 18:05:49 10° S
SL-8 R/B 3.9 17:58:09 10° WNW 18:02:58 77° SW 18:07:47 10° SE
Cosmos 1975 Rocket 3.4 18:03:19 10° NNW 18:07:38 72° W 18:11:55 10° S
OAO 3 Copernicus 4.4 18:03:16 10° W 18:08:22 81° S 18:13:24 10° E
SKYMED 2 4.2 18:05:03 10° N 18:09:20 60° WNW 18:13:35 10° SSW
Cosmos 1633 3.7 18:07:40 10° SE 18:10:40 24° E 18:13:42 10° NE
CZ-3C R/B 3.7 18:14:12 10° SSW 18:15:42 11° SSW 18:16:52 10° S
FREGAT/IRIS 3.2 18:13:20 10° SE 18:16:12 37° ENE 18:19:06 10° N
ALOS 2.9 18:14:45 10° SE 18:18:53 32° ENE 18:23:02 10° N
Cosmos 1833 4.5 18:13:55 10° S 18:19:23 48° ESE 18:24:48 10° NE
Cosmos 1536 Rocket 3.7 18:22:08 10° N 18:26:31 52° E 18:30:52 10° SSE
Cosmos 1818 3.6 18:21:10 10° SSW 18:26:36 86° WNW 18:32:06 10° NNE
ASTRO E2 4.3 18:24:12 10° WSW 18:27:42 29° SSW 18:31:14 10° SE
Meteor 1-18 Rocket 4.4 18:23:51 10° NNW 18:29:24 78° W 18:35:00 10° S
SJ-6B 2.8 18:28:22 10° SSE 18:32:23 69° ENE 18:36:21 10° N
SL-16 R/B 2.2 18:27:48 10° NNW 18:33:29 88° WSW 18:39:10 10° SSE
FengYun 1-2 T 4.4 18:29:17 10° SE 18:34:31 48° ENE 18:39:47 10° N
TSX-5 3.1 18:32:02 10° SSW 18:35:17 88° ESE 18:38:27 10° NNE
Nadezhda 1 Rocket 4.4 18:29:16 10° NNW 18:35:18 67° W 18:41:18 10° S
DNEPR-1 R/B 3.4 18:32:33 10° NNW 18:36:47 81° ENE 18:41:06 10° SSE
Resurs 01 Rocket 2.1 18:34:15 10° SE 18:38:20 38° ENE 18:42:25 10° N
Cosmos 407 Rocket 4.2 18:34:57 10° SSW 18:40:03 56° WNW 18:45:17 10° N
Gbstr 26 Del rocket 2.7 18:38:12 10° SW 18:42:01 57° SE 18:43:56 25° ENE
Cosmos 676 Rocket 4.1 18:36:59 10° SSW 18:42:09 80° WNW 18:47:23 10° NNE
Cosmos 1340 2.7 18:38:50 10° N 18:42:34 54° E 18:46:16 10° SSE
Meteor 1-19 Rocket 4.4 18:38:21 10° N 18:43:51 49° ENE 18:49:24 10° SSE
Cosmos 1238 Rocket 2.4 18:41:06 10° N 18:43:57 41° E 18:45:29 22° SE
DELTA 2 R/B (1) 3.7 18:39:40 10° WNW 18:45:17 68° NNE 18:48:39 24° E
Cosmos 2181 Rocket 3.9 18:43:21 10° N 18:49:34 66° E 18:55:51 10° SSE
Cosmos 2322 Rocket 2.8 18:45:51 10° NNW 18:51:21 59° WSW 18:56:50 10° S
Tiangong 2 1.0 18:51:04 10° WNW 18:54:08 64° NNE 18:54:33 54° ENE
Cosmos 1300 Rocket 3.5 18:50:33 10° S 18:54:56 86° E 18:59:24 10° N
Cosmos 1536 2.9 18:53:29 10° S 18:57:20 50° E 19:01:13 10° NNE
Meteor 1-13 Rocket 4.1 18:52:48 10° N 18:58:22 77° E 19:04:00 10° SSE
Resurs 1-3 3.6 18:56:41 10° SSE 19:00:58 58° ENE 19:05:17 10° N
CZ-2D R/B 3.5 19:03:05 45° ENE 19:03:05 45° ENE 19:06:34 10° N
Cosmos 2322 3.7 18:58:32 10° NNW 19:04:11 56° ENE 19:07:31 24° SE
FENGYUN 3A 3.6 18:58:47 10° SSE 19:04:11 87° WSW 19:09:38 10° NNW
Cosmos 1140 Rocket 3.5 19:00:01 10° SSW 19:05:08 81° WNW 19:10:19 10° NNE
Cosmos 2074 Rocket 4.0 18:59:17 10° SSE 19:05:19 53° E 19:11:23 10° NNE
Cosmos 2184 Rocket 4.1 18:59:56 10° SSE 19:06:01 52° E 19:12:05 10° NNE
Cosmos 1709 Rocket 4.5 18:59:58 10° SSW 19:06:09 62° W 19:12:17 10° N
SL-19 R/B 4.2 19:02:16 10° SSE 19:07:51 84° ENE 19:13:46 10° NNW
Cosmos 1461 3.7 19:05:41 10° NW 19:09:35 48° WSW 19:13:34 10° S
Meteor 1-23 Rocket 4.4 19:04:38 10° N 19:10:15 48° ENE 19:12:58 28° SE
H-2A R/B 2.5 19:10:07 26° SSE 19:12:08 86° E 19:15:53 10° N
Cosmos 2208 Rocket 4.4 19:07:05 10° N 19:12:13 40° ENE 19:12:31 40° ENE
Spot 2 Rocket 3.4 19:09:15 10° SSE 19:14:18 88° WSW 19:19:23 10° NNW
COSMOS 2428 3.2 19:11:54 10° N 19:16:58 37° ENE 19:16:58 37° ENE
Cosmos 614 Rocket 3.9 19:12:25 10° SSW 19:17:31 84° WNW 19:22:37 10° NNE
Cosmos 2237 4.4 19:12:14 10° N 19:17:46 48° ENE 19:18:32 45° E
Meteor 2-4 Rocket 3.5 19:12:28 10° N 19:18:00 70° E 19:22:38 14° SSE
Helios 1A 3.3 19:21:30 48° NNE 19:21:30 48° NNE 19:24:44 10° N
Cosmos 1850 Rocket 3.9 19:18:39 10° SSW 19:23:55 88° WNW 19:29:17 10° NNE
Okean 1 Rocket 3.7 19:21:29 10° SSW 19:25:52 56° W 19:30:18 10° N
Cosmos 2237 Rocket 4.3 19:23:11 10° NNE 19:23:53 12° NNE 19:23:53 12° NNE
SL-24 R/B 4.5 19:22:28 10° S 19:27:33 85° E 19:33:12 10° N
Envisat 4.4 19:33:05 24° NNE 19:33:05 24° NNE 19:35:18 10° N
GPS 2-04 Rocket1 3.7 19:27:26 10° SW 19:30:46 40° SSW 19:30:46 40° SSW
USA 229 DEB 4.3 19:25:23 10° NNW 19:31:59 38° NE 19:32:15 38° NE
USA 229 4.3 19:25:30 10° NNW 19:32:04 38° NE 19:32:20 38° NE
Cosmos 2285 Rocket 4.3 19:29:00 10° N 19:34:37 45° NE 19:34:37 45° NE
Cosmos 2219 3.1 19:31:54 10° SSW 19:37:39 87° WNW 19:41:01 26° NNE
Cosmos 2360 Rocket 2.7 19:38:00 10° NNW 19:43:32 57° WSW 19:47:02 23° S
Helios 1B rocket 3.0 19:44:11 56° W 19:44:11 56° W 19:48:05 10° SSW
Cosmos 2219 Rocket 3.6 19:41:36 10° N 19:44:08 24° NNE 19:44:08 24° NNE
Okean 1-7 Rocket 4.2 19:43:00 10° NNW 19:47:26 55° W 19:48:12 48° SW
ATLAS 2A CENTAUR R/B 4.0 20:04:19 10° SW 20:07:25 26° S 20:07:25 26° S
Cosmos 2333 Rocket 4.0 20:06:59 10° N 20:09:02 22° N 20:09:02 22° N
BREEZE-M DEB (TANK) 4.2 20:10:26 10° NW 20:12:05 35° NW 20:12:05 35° NW
Resurs 01 Rocket 4.4 20:12:12 10° SW 20:14:54 16° W 20:17:37 10° NW
CZ-3 Stage 3 4.5 20:22:58 10° SW 20:44:41 39° S 20:44:41 39° S
